STARLINK-1844 (47134 NORAD) Tracking and Keplerian Element Data
This shows tracking and keplerian element data for the satellite.
Feedback or suggestion? Click here.
Element | Value |
Catalog | 47134 |
Name | STARLINK-1844 |
Epoch Orbit | 896 |
Epoch Day | 16.19309147 |
Epoch Year | 2021 |
RAAN | 97.5121 |
Inclination | 53.0559 |
Eccentricity | 0.0008308 |
Argument of Perigee | 272.9831 |
Mean Anonmoly | 87.0228 |
Mean Motion | 15.53015605 |
Decay Rate | -0.00056364 |
L1 | 1 47134U 20088N 21016.19309147 -.00056364 00000-0 -88515-3 0 9997 |
L2 | 2 47134 53.0559 97.5121 0008308 272.9831 87.0228 15.53015605 8965 |
Live tracking and technical data element details for STARLINK-1844 (NORAD 47134). STARLINK-1844 can be tracked NOW for your location showing map with azimuth and elevation plus other details from your city location.
Track the satellite on the map from your city or location and see movement details for azimuth, elevation, latitude, longitude, range, height, and movement on the map or in text.
IsCatalogInMostPopularTable: catalog: 47134, numindb: 13
Update: records affected: 1
GetName: 47134 STARLINK-1844
Hit Count: updated at: Sun, 17 Jan 2021 10:07:41 GMT